Regional Weather Roundup
Issued by NWS

Home | Current Version | Previous Version | Graphics & Text | Print | Product List | Glossary On
Versions: 1 2 3 4 5 6 7 8 9 10 11 12 13 14 15 16 17 18 19 20 21 22 23 24 25 26 27 28 29 30 31 32 33 34 35 36 37 38 39 40 41 42 43 44 45 46 47 48 49 50
805
ASUS44 KLIX 211301
RWRLA
LOUISIANA WEATHER ROUNDUP
NATIONAL WEATHER SERVICE NEW ORLEANS LA
700 AM CST FRI NOV 21 2014

NOTE: "FAIR" INDICATES FEW OR NO CLOUDS BELOW 12,000 FEET WITH NO
      SIGNIFICANT WEATHER AND/OR OBSTRUCTIONS TO VISIBILITY.
      SKY/WX - SKY CONDITION AND SIGNIFICANT WEATHER.
      TMP - AIR TEMPERATURE.    DP   - DEWPOINT TEMPERATURE.
      RH  - RELATIVE HUMIDITY.  PRES - PRESSURE.
      HX  - HEAT INDEX.         WCI  - WIND CHILL INDEX.

*  THESE STATIONS ARE NOT NWS OR FAA STATIONS AND ARE NOT UNDER
   NWS QUALITY CONTROL.

LAZ040-048-061>063-065-066-069-211400-
SOUTHEAST LOUISIANA

CITY           SKY/WX    TMP DP  RH WIND       PRES   REMARKS
N.O. AUDUBON     N/A     52  47  83 MISG        N/A
N.O. INTL ARPT PTCLDY    47  44  90 CALM      30.28R
N.O. LAKEFRONT CLEAR     52  48  86 E5        30.29R
N.O. DOWNTOWN* FAIR      57  45  62 CALM      30.29R
SLIDELL        CLEAR     39  36  89 CALM      30.29R
BATON ROUGE    CLOUDY    48  45  89 MISG      30.27R
BOOTHVILLE     CLEAR     55  51  86 E5        30.28R
BELLE CHASSE   PTCLDY    44  40  85 CALM      30.28R
BOGALUSA*        N/A     39  37  91 CALM      30.31R
NEW ROADS*     CLOUDY    50  47  89 E3        30.26R
GONZALES*      NOT AVBL
HAMMOND*       PTCLDY    41  39  93 CALM      30.29R
HOUMA*         CLEAR     46  46 100 CALM      30.26R
PORT FOURCHON* SUNNY     63  52  67 E12       30.29R

$$

LAZ041-044-053-054-211400-
SOUTHWEST LOUISIANA

CITY           SKY/WX    TMP DP  RH WIND       PRES   REMARKS
LAKE CHARLES   CLOUDY    60  53  77 SE13      30.19R
LAFAYETTE      CLOUDY    57  50  77 VRB3      30.23R
PATTERSON      PTCLDY    55  48  76 E5        30.27R
SALT POINT       N/A     58  51  78 E5        30.23R
NEW IBERIA     CLOUDY    57  51  80 SE6       30.24R
CHENAULT AIRPK NOT AVBL

$$

LAZ027-028-211400-
CENTRAL LOUISIANA

CITY           SKY/WX    TMP DP  RH WIND       PRES   REMARKS
FORT POLK      LGT RAIN  55  53  94 SE8       30.21R
ALEXANDRIA INT CLOUDY    54  50  86 E5        30.21R
ALEXANDRIA     CLOUDY    51  48  89 E3        30.24R

$$

LAZ001-002-211400-
NORTHWEST LOUISIANA

CITY           SKY/WX    TMP DP  RH WIND       PRES   REMARKS
SHREVEPORT     LGT RAIN  54  53  97 SE13G23   30.18R FOG
BARKSDALE AFB  LGT RAIN  54  52  94 SE13      30.19R FOG
DTN SHREVEPORT RAIN      53  51  93 SE12      30.18S FOG

$$

LAZ014-016-211400-
NORTHEAST LOUISIANA

CITY           SKY/WX    TMP DP  RH WIND       PRES   REMARKS
MONROE         CLOUDY    52  49  89 CALM      30.26R
TALLULAH       CLOUDY    47  45  93 SE3       30.27R

$$




USA.gov is the U.S. government's official web portal to all federal, state and local government web resources and services.